METAR AND TAF INFORMATION
METAR FOR SKSM
ADDS - METARS form results

(0514 UTC 20 July 2019)
Data provider http://aviationweather.gov/metar/data/
 
METAR text: SKSM 200500Z 23004KT 9999 FEW020 SCT200 30/25 A2977
Conditions at: SKSM (SANTA MARTA/SIMO, CO) observed 0500 UTC 20 July 2019
Temperature: 30.0°C (86°F)
Dewpoint: 25.0°C (77°F) [RH = 75%]
Pressure (altimeter): 29.77 inches Hg (1008.2 mb)
Winds: from the SW (230 degrees) at 5 MPH (4 knots; 2.1 m/s)
Visibility: 6 or more miles (10+ km)
Ceiling: at least 12,000 feet AGL
Clouds: few clouds at 2000 feet AGL
scattered clouds at 20000 feet AGL
Weather: no significant weather observed at this time

 AIRPORT MAP

 RUNWAY INFORMATION
Runway 01 Runway length 5577 ft Runway width 98 ft
Runway elevation 8 ft Runway displaced threshold 0 ft Runway heading 359
Runway 19 Runway length 5577 ft Runway width 98 ft
Runway elevation 22 ft Runway displaced threshold 0 ft Runway heading 179

 AIRPORT FREQUENCIES
Type APP Name BARRANQUIL Frequency 119.1 MHZ
Type TWR Name TWR Frequency 118.7 MHZ

 AIRPORT NEAR NAVIGATION AIDS
Type NDB Name Santa Marta Frequency 287 KHZ
Type VOR-DME Name Santa Marta Frequency 116600 KHZ



Powered by Virtual Airlines Manager [v2.6.2]